Estación de San Julian

Ultimos registro cada 15 minutos 61
Estación Fecha / Hora Temperatura Humedad Lluvia Velocidad Dirección Radiación Presion
61 San Julian 08-05-2026 15:00 26,2 31,2 0 0 240 423,1 981,1
60 San Julian 08-05-2026 14:45 25,7 32,9 0 0 234 433,1 981,4
59 San Julian 08-05-2026 14:30 25,5 35,1 0 0 227 464,4 981,5
58 San Julian 08-05-2026 14:15 25,3 36 0 0 229 478,1 981,6
57 San Julian 08-05-2026 14:00 26,4 34,8 0 0 279 501,9 981,8
56 San Julian 08-05-2026 13:45 25,6 36,3 0 0 292 515,6 982,1
55 San Julian 08-05-2026 13:30 24,5 37,5 0 0 268 536,9 982,4
54 San Julian 08-05-2026 13:15 24 38 0 0 284 541,9 982,5
53 San Julian 08-05-2026 13:00 23,2 38,6 0 0 324 549,4 982,7
52 San Julian 08-05-2026 12:45 23,1 37 0 0 306 554,4 983,1
51 San Julian 08-05-2026 12:30 22,2 40,4 0 0 306 530,6 983,2
50 San Julian 08-05-2026 12:15 20,9 41 0 0 340 540,6 983,5
49 San Julian 08-05-2026 12:00 20,7 42,2 0 0 4 521,9 983,8
48 San Julian 08-05-2026 11:45 19,8 42,8 0 0 6 506,9 984,1
47 San Julian 08-05-2026 11:30 18,6 45,1 0 0 14 485,6 984,2
46 San Julian 08-05-2026 11:15 18 45,7 0 0 15 476,9 984,1
45 San Julian 08-05-2026 11:00 17,7 45,8 0 0 22 454,4 984,4
44 San Julian 08-05-2026 10:45 17 46,1 0 0 18 438,1 984,7
43 San Julian 08-05-2026 10:30 16 50,7 0 0 22 251,9 984,7
42 San Julian 08-05-2026 10:15 15,2 52,8 0 0 41 319,4 984,7
41 San Julian 08-05-2026 10:00 14,3 54,3 0 0 41 231,9 984,9
40 San Julian 08-05-2026 09:45 12,8 61 0 0 41 180,6 985
39 San Julian 08-05-2026 09:30 12,7 60,4 0 0 41 190,6 985
38 San Julian 08-05-2026 09:15 13,1 60,3 0 0 41 188,1 985,3
37 San Julian 08-05-2026 09:00 12,2 61,8 0 0 41 108,1 985,3
36 San Julian 08-05-2026 08:45 11,4 62,2 0 0 41 113,1 985,3
35 San Julian 08-05-2026 08:30 11 66,6 0 0 41 108,1 985,4
34 San Julian 08-05-2026 08:15 11,3 68,4 0 0 41 119,4 985,4
33 San Julian 08-05-2026 08:00 8,6 78 0 0 41 73,1 985,2
32 San Julian 08-05-2026 07:45 5,7 85 0 0 41 18,1 985,1
31 San Julian 08-05-2026 07:30 5,4 84,2 0 0 41 5,6 984,9
30 San Julian 08-05-2026 07:15 6,5 85,8 0 0 41 0,6 984,9
29 San Julian 08-05-2026 07:00 5,3 83,4 0 0 41 0,6 984,9
28 San Julian 08-05-2026 06:45 5,6 83,8 0 0 41 0,6 984,7
27 San Julian 08-05-2026 06:30 5,8 81,7 0 0 41 0,6 984,6
26 San Julian 08-05-2026 06:15 7 81,4 0 0 41 0,6 984,2
25 San Julian 08-05-2026 06:00 6,9 79,2 0 0 41 0,6 984,4
24 San Julian 08-05-2026 05:45 6,4 81,8 0 0 41 0,6 984,5
23 San Julian 08-05-2026 05:30 6,5 82 0 0 41 0,6 984,5
22 San Julian 08-05-2026 05:15 6 83,8 0 0 41 0,6 984,5
21 San Julian 08-05-2026 05:00 6,1 83,5 0 0 41 0,6 984,6
20 San Julian 08-05-2026 04:45 6,4 84 0 0 41 0,6 984,5
19 San Julian 08-05-2026 04:30 6,4 84,1 0 0 41 0,6 984,4
18 San Julian 08-05-2026 04:15 6,5 84,9 0 0 39 0,6 984,4
17 San Julian 08-05-2026 04:00 6,5 84,2 0 0 39 0,6 984,6
16 San Julian 08-05-2026 03:45 5,9 84,5 0 0 39 0,6 984,8
15 San Julian 08-05-2026 03:30 6,1 82,3 0 0 39 0,6 984,8
14 San Julian 08-05-2026 03:15 7,5 80,7 0 0 39 0,6 984,9
13 San Julian 08-05-2026 03:00 7 80 0 0 39 0,6 985
12 San Julian 08-05-2026 02:45 8 80,8 0 0 39 0,6 985,4
11 San Julian 08-05-2026 02:30 7,9 80,3 0 0 39 0,6 985,7
10 San Julian 08-05-2026 02:15 8,9 77,2 0 0 39 0,6 985,6
9 San Julian 08-05-2026 02:00 10 77,3 0 0 38 0,6 985,4
8 San Julian 08-05-2026 01:45 10,3 75,9 0 0 29 0,6 985,6
7 San Julian 08-05-2026 01:30 10,1 76,6 0 0 38 0,6 985,7
6 San Julian 08-05-2026 01:15 10,1 76,5 0 0 35 0,6 985,9
5 San Julian 08-05-2026 01:00 10,3 76,5 0 0 34 0,6 986,1
4 San Julian 08-05-2026 00:45 10,5 76,8 0 0 45 0,6 986,2
3 San Julian 08-05-2026 00:30 10,6 77,4 0 0 3 0,6 986,3
2 San Julian 08-05-2026 00:15 10,4 77,3 0 0 295 0,6 986,3
1 San Julian 08-05-2026 00:00 10,3 77,8 0 0 293 0,6 986,3